SCP
0 0 0 0 0 0 0 1 1 1 1 1 0 0 0 0 0 0 0 0 1 1 1 1 1 1 1 2 2 2 2 2 2 1 1 1 1 1 1 1 1 1 1
0 0 0 0 0 0 0 1 1 1 0 0 0 0 0 0 0 0 0 0 1 1 1 1 1 1 1 1 2 2 2 2 2 1 1 1 1 1 1 1 1 1 1
0 0 0 0 0 0 0 0 0 0 0 0 0 0 0 0 0 0 0 0 1 1 1 1 1 1 1 1 1 2 2 2 2 1 1 2 2 2 1 1 1 1 1
0 0 0 0 0 0 0 0 0 0 0 0 0 0 0 0 0 0 0 0 1 1 1 1 1 1 1 1 1 2 2 2 2 1 1 2 2 2 2 1 1 1 1
0 0 0 0 0 0 0 0 0 0 0 0 0 0 0 0 0 0 0 1 1 1 1 1 1 1 1 1 1 1 2 2 2 1 1 1 1 2 2 1 1 1 1
0 0 0 1 1 0 0 0 0 0 0 0 0 0 0 0 0 0 0 0 0 0 1 1 1 1 1 1 1 1 1 2 1 1 1 1 1 1 2 1 1 1 1
0 0 0 1 1 1 0 0 0 0 0 0 0 0 1 1 0 0 0 0 0 0 0 0 1 1 1 1 1 1 1 1 1 1 1 1 1 1 1 1 1 1 1
0 0 0 1 1 1 1 1 1 1 1 1 1 1 1 1 0 0 0 0 0 0 0 1 1 1 1 1 1 1 1 1 1 1 1 1 2 1 1 1 1 1 1
0 1 1 1 1 1 1 1 1 1 1 1 1 1 1 1 0 0 0 0 0 1 1 1 1 1 1 1 1 1 1 1 1 1 1 1 2 2 1 1 1 1 1
1 1 1 1 1 2 1 1 1 1 1 1 0 0 0 0 0 0 0 0 0 1 1 1 1 1 0 0 0 0 1 1 1 1 1 2 2 2 2 1 1 1 1
1 1 1 2 2 2 2 1 1 1 1 1 0 0 0 0 0 0 0 0 0 0 0 0 0 0 0 0 0 1 1 1 1 1 1 2 2 2 2 2 1 1 1
1 1 1 2 2 2 2 2 2 1 1 1 0 0 0 0 0 0 0 0 0 0 0 0 0 0 0 1 1 1 1 1 1 1 1 2 2 3 2 2 2 1 1
1 1 1 1 2 2 2 3 2 2 1 0 0 0 0 0 0 0 0 0 0 0 0 0 0 0 0 1 1 1 1 1 1 1 1 2 2 3 2 2 2 1 1
1 1 1 1 1 1 2 2 2 2 1 0 0 0 0 0 0 0 0 0 0 0 0 0 0 0 1 1 1 1 1 1 1 1 1 2 2 2 2 2 1 1 1
1 1 1 1 1 1 1 1 1 1 1 0 0 0 0 0 0 0 0 0 0 0 0 0 0 0 1 1 1 1 1 1 1 1 1 1 1 1 1 1 1 1 1
1 1 1 1 1 1 1 1 1 0 0 0 0 0 0 1 1 0 0 0 0 0 1 1 1 1 1 1 1 1 1 1 1 1 1 1 1 1 1 0 0 0 0
2 2 1 1 1 1 1 1 1 1 1 1 1 1 1 1 1 1 1 1 1 1 1 1 1 1 1 1 1 1 1 1 1 1 1 1 1 1 0 0 0 0 0
2 2 2 2 2 2 2 2 1 1 1 1 1 1 1 1 1 1 1 1 1 1 1 1 1 1 1 1 1 1 1 1 1 1 0 0 0 0 0 0 0 0 0
3 3 3 2 2 2 2 2 2 2 2 2 2 2 2 2 2 2 2 1 1 1 1 2 2 2 2 2 2 1 1 0 0 0 0 0 0 0 0 0 0 0 0
3 3 3 2 2 2 2 2 2 2 2 2 2 2 2 2 2 2 2 2 2 2 2 2 2 2 3 3 2 1 1 0 0 0 0 0 0 0 0 0 0 0 0
5 4 3 2 2 2 1 1 1 1 1 1 1 1 2 2 2 2 2 2 2 2 3 3 3 3 4 4 3 2 1 1 1 1 0 0 0 0 0 0 0 0 0
7 6 4 3 2 2 1 1 1 1 1 1 1 1 1 1 1 1 2 2 2 2 3 4 4 4 5 5 4 2 1 1 1 1 1 1 0 0 0 0 0 0 0
8 8 6 4 3 2 1 0 1 1 1 1 1 1 1 2 2 2 3 3 2 2 3 3 4 4 5 5 4 3 2 1 1 1 1 1 1 1 0 0 0 0 0
9 8 7 5 4 2 1 0 1 1 1 1 1 2 2 2 3 3 3 3 3 3 2 2 3 3 4 4 3 3 2 1 1 1 1 1 1 1 1 0 0 0 0
8 8 7 5 3 2 1 1 1 1 1 1 2 2 2 3 3 3 3 3 3 2 2 1 1 1 2 2 2 2 2 1 1 1 1 1 1 1 1 1 1 0 0
7 7 6 4 3 2 1 1 1 1 2 2 2 3 3 3 2 2 2 2 2 1 1 1 1 1 1 0 1 1 1 1 1 1 1 1 1 1 1 1 1 0 0
Wind_Speed
1 1 1 1 1 1 2 2 2 2 2 2 1 2 1 1 1 1 1 3 4 4 5 6 6 7 7 7 7 7 6 6 6 6 6 6 6 7 7 8 7 6 6
1 1 1 1 1 1 1 2 2 2 1 1 1 1 1 1 1 1 1 2 3 4 5 5 5 6 6 6 6 6 6 6 5 5 4 4 4 5 6 7 6 6 6
2 1 1 1 1 1 2 2 2 2 1 1 1 1 1 1 1 0 1 1 1 2 3 3 3 4 5 5 6 6 6 6 6 5 5 5 5 5 5 5 5 5 5
2 2 1 1 1 2 2 2 2 1 1 1 1 0 0 0 1 1 0 0 0 1 1 2 2 3 4 5 5 5 5 6 6 6 6 6 6 5 4 4 4 5 5
2 2 1 1 2 2 1 2 2 2 1 1 1 0 0 0 0 0 0 0 0 1 1 2 2 3 3 4 4 4 4 5 5 6 6 6 6 5 5 5 4 4 4
2 2 2 2 2 2 1 1 2 2 1 1 1 1 1 0 0 0 0 0 0 1 1 1 1 2 3 3 3 3 4 4 4 5 5 6 6 6 5 5 4 4 4
2 2 2 2 2 2 2 2 2 2 1 1 1 1 2 1 1 0 0 0 1 1 1 1 1 1 1 2 2 2 3 4 4 5 5 6 7 6 6 6 6 5 5
2 2 3 2 2 2 2 2 2 2 1 1 2 1 1 2 1 1 0 0 1 1 1 1 1 1 1 1 1 1 2 2 3 4 4 6 7 7 7 6 6 6 6
1 2 3 3 2 2 2 2 3 3 2 1 1 2 2 2 1 1 1 0 1 1 1 1 1 1 1 1 1 1 2 2 2 3 4 4 5 6 7 6 6 6 7
1 2 2 3 3 2 2 2 2 2 3 1 1 1 1 2 1 1 1 1 1 1 1 1 1 1 1 1 1 1 2 2 2 3 3 2 3 4 5 6 6 6 7
0 1 2 2 2 2 2 2 2 2 2 2 2 2 1 1 1 2 1 1 1 1 1 1 1 1 1 1 2 1 2 2 2 2 2 2 2 3 5 6 7 7 7
0 0 1 2 2 2 2 2 2 3 2 3 2 2 2 2 2 2 2 1 1 2 1 1 1 2 2 2 2 2 2 2 2 2 2 2 3 3 3 4 5 6 6
1 1 1 2 2 2 2 2 2 2 3 3 2 2 2 2 2 2 2 1 1 1 1 1 2 2 2 2 2 3 2 2 2 2 2 2 2 2 2 3 4 4 5
2 2 2 2 2 2 2 2 2 2 2 2 2 2 2 1 2 2 2 2 1 1 1 2 1 2 2 2 2 2 2 2 2 2 2 2 2 2 2 2 2 2 3
2 2 2 2 2 2 2 2 1 2 2 2 2 2 2 1 1 2 2 2 2 1 2 2 1 2 2 2 2 2 2 2 2 2 2 2 2 2 2 1 1 1 1
2 2 2 2 2 2 2 2 2 2 2 1 1 2 1 1 1 1 2 1 2 2 2 2 2 2 1 2 2 2 2 2 2 2 2 2 2 2 2 2 2 2 2
3 3 2 2 2 2 2 3 3 2 2 1 1 2 2 2 1 1 1 1 2 2 2 2 1 1 1 2 1 1 2 2 2 2 2 2 2 2 2 3 3 2 2
2 3 3 2 2 2 2 3 3 2 2 2 2 2 2 2 2 1 1 2 2 3 3 3 2 1 2 2 1 1 1 1 2 2 3 3 3 3 3 3 3 3 3
3 3 3 3 3 3 3 3 3 3 3 3 3 3 3 2 2 2 2 2 2 2 2 2 2 1 1 1 1 1 1 1 2 1 2 3 3 4 4 5 5 5 5
4 4 4 3 3 3 3 2 3 3 2 2 3 3 3 4 4 3 3 3 3 2 2 2 2 1 1 1 1 1 2 2 2 1 2 2 3 4 5 5 6 6 6
4 4 4 3 3 3 3 3 3 3 2 2 2 2 3 4 5 4 3 3 3 2 2 2 2 1 1 1 2 1 2 2 2 2 2 2 2 2 3 5 6 7 7
3 3 3 4 4 3 4 5 4 3 3 3 2 2 3 3 4 4 5 5 4 4 4 3 2 3 3 3 2 2 2 1 2 1 2 3 2 3 3 3 5 6 7
4 4 4 3 4 4 5 5 5 4 3 3 3 2 2 2 2 2 3 3 4 5 6 5 4 5 4 4 3 3 3 3 3 2 2 3 2 3 3 4 5 5 6
4 3 3 3 3 3 4 5 5 3 3 4 4 4 3 3 3 2 2 2 3 3 5 5 5 6 5 4 5 4 3 3 3 2 3 3 2 3 3 3 4 4 5
3 3 2 3 3 3 4 5 4 3 3 4 4 3 3 4 4 3 2 3 4 4 4 5 5 5 5 5 4 2 2 2 3 2 3 3 2 2 3 3 3 3 4
3 3 2 2 3 3 4 5 5 3 3 3 2 3 3 3 4 3 3 3 5 5 3 2 3 3 4 4 5 5 4 3 2 3 3 3 2 1 2 2 2 2 2
Wind_Direction
115 96 81 78 78 85 92 88 89 97 99 95 115 135 147 142 151 168 239 231 233 238 239 229 221 217 216 210 209 208 204 203 204 203 211 217 220 220 217 214 215 211 212
145 133 116 102 106 111 116 112 110 108 107 103 108 126 146 152 171 189 247 261 253 251 247 234 229 222 215 209 203 200 202 204 202 197 194 197 210 216 213 210 212 213 208
160 152 137 132 138 126 115 106 97 99 119 115 99 115 125 162 169 213 250 273 279 260 250 230 227 220 217 214 211 207 203 204 204 195 192 199 205 211 210 210 207 205 205
156 147 144 150 129 115 118 124 119 110 102 102 77 32 74 190 194 184 191 252 304 290 275 256 243 238 234 232 226 217 208 204 200 200 203 205 204 202 203 201 206 212 211
144 144 153 147 125 117 127 156 123 132 134 130 130 52 3 278 243 192 160 232 258 271 295 298 282 274 255 244 234 218 206 199 202 208 213 215 210 204 204 200 200 204 207
136 138 136 118 116 117 111 116 121 110 123 131 102 56 37 9 62 92 219 276 276 259 264 294 296 292 283 275 255 232 220 212 210 218 224 223 219 210 205 200 203 204 208
136 130 128 123 127 132 143 143 129 112 99 116 95 35 14 23 47 288 255 296 312 307 316 289 281 276 285 294 280 261 247 235 224 229 233 227 220 214 209 209 211 210 213
144 142 140 142 140 132 130 139 133 131 132 127 128 110 3 345 3 12 339 230 283 326 321 307 313 302 296 300 328 310 286 266 253 254 253 234 219 215 215 215 215 214 212
137 138 149 150 152 157 167 169 161 159 165 159 128 143 155 231 310 348 344 335 327 324 308 317 330 313 302 306 298 300 290 288 283 281 278 250 221 216 216 215 215 214 209
145 152 152 157 162 164 170 184 168 165 154 175 182 172 170 164 159 326 339 359 355 307 295 292 302 311 301 284 288 295 297 293 296 296 294 283 223 210 205 209 214 214 211
135 155 157 164 167 172 176 172 160 157 161 173 177 164 146 128 146 164 271 321 343 302 279 266 270 277 276 271 270 286 287 290 296 292 288 288 262 234 219 219 222 219 216
305 179 159 164 174 175 177 179 171 165 171 170 169 162 159 164 181 175 202 247 282 298 299 274 266 260 256 265 274 293 284 288 285 284 283 282 281 285 241 232 230 223 220
227 228 194 181 183 191 187 176 166 175 179 173 176 174 174 178 164 161 167 192 250 299 303 278 255 260 260 257 271 283 280 274 269 269 275 281 278 270 253 249 243 232 227
218 212 195 195 194 190 191 179 176 186 174 179 172 164 168 190 175 177 174 164 189 296 284 271 265 250 261 259 273 275 288 285 278 269 264 266 280 285 264 246 244 240 229
208 198 196 201 205 199 189 166 167 181 164 176 180 168 175 193 180 183 182 178 176 216 266 267 266 269 251 242 252 243 250 256 252 259 254 251 254 254 250 238 225 235 226
203 191 200 204 204 202 180 155 158 169 159 183 178 162 176 190 177 169 187 194 195 197 232 254 249 273 262 251 240 237 244 250 244 243 241 243 246 240 234 231 225 224 209
195 192 198 196 197 195 179 166 175 171 175 195 194 184 203 192 187 194 190 188 197 196 226 265 261 282 256 270 274 246 246 248 250 239 244 245 239 239 247 244 235 228 220
195 195 189 188 194 191 180 171 175 176 185 199 205 195 218 204 204 212 202 212 213 207 209 248 267 275 264 270 270 264 270 266 259 244 244 245 242 245 247 241 230 228 227
198 197 188 193 197 191 181 179 178 185 195 208 208 204 217 203 216 216 214 225 227 221 211 223 251 252 263 276 295 299 303 292 274 249 236 248 253 255 250 241 231 229 228
194 193 190 190 193 193 190 185 182 196 206 217 221 220 221 214 219 220 217 226 224 215 212 219 241 249 253 259 242 269 291 281 279 273 275 272 262 259 254 249 240 231 226
199 194 190 189 192 194 200 192 192 199 206 221 233 236 235 227 223 220 217 214 206 206 209 222 236 246 250 237 240 243 265 285 280 243 264 270 268 263 255 250 247 239 230
198 193 200 199 201 210 199 195 188 196 199 209 228 248 248 237 238 236 227 214 202 202 209 213 226 237 244 237 234 236 248 264 269 228 237 266 248 259 258 250 247 238 232
197 200 206 206 213 218 206 203 200 193 201 217 221 234 257 257 250 246 239 232 235 227 211 205 220 232 234 226 215 229 231 238 251 242 216 258 246 257 261 253 247 239 231
195 205 208 212 220 227 212 207 204 198 212 226 227 227 237 257 258 243 250 263 264 252 233 223 227 234 234 229 217 220 227 244 270 245 209 243 248 258 274 266 254 244 238
194 210 214 212 221 240 221 209 197 197 221 236 237 234 236 250 259 237 229 257 277 280 255 237 238 242 237 225 203 187 201 222 265 253 207 231 246 262 264 261 258 244 239
197 205 218 221 226 239 230 210 192 195 220 239 248 244 238 250 266 238 219 234 257 268 276 275 263 259 247 233 210 206 209 218 241 252 210 214 230 235 266 254 250 253 243